Lid_Strength_Index
-1 -1 -1 2 8 8 11 10 7 8 7 5 4 6 6 6 8 11 1 0 -0 0 -1 -1 -1 -1 -1 -2 -1 -1 -1 -2 -2 -2 -2 -2 -2 -2 -2 -2 -2 -2 -2 -2 -2 -2 -2 -2 -2
0 0 1 4 10 11 10 7 8 7 5 4 5 5 6 7 4 4 3 0 -1 1 -1 -1 -1 -1 -1 -1 -1 -1 -1 -2 -2 -2 -2 -2 -2 -2 -2 -2 -2 -2 -2 -2 -2 -2 -2 -2 -2
0 0 4 7 9 11 10 7 6 6 5 5 6 4 5 6 3 3 1 -0 0 -1 -1 -1 -1 -1 -2 -1 -1 -1 -1 -2 -2 -2 -2 -2 -2 -2 -2 -2 -2 -2 -2 -2 -2 -2 -2 -2 -2
1 2 4 9 10 8 8 6 5 6 5 4 5 7 4 2 3 1 0 -0 0 -0 -1 -1 -1 -1 -2 -2 -2 -2 -2 -2 -2 -2 -2 -2 -2 -2 -2 -2 -2 -2 -2 -2 -2 -2 -2 -2 -2
1 4 8 9 9 7 6 5 5 7 6 5 5 7 6 3 1 0 0 -0 0 -0 -1 -1 -1 -1 -1 -2 -2 -2 -2 -2 -2 -2 -2 -2 -2 -2 -2 -2 -2 -2 -2 -2 -2 -1 -2 -1 -2
5 5 10 11 9 7 6 5 5 6 5 5 6 6 5 2 2 1 0 -0 -0 -0 -1 -1 0 -0 -1 -1 -1 -2 -2 -2 -3 -2 -2 -3 -2 -2 -2 -2 -2 -2 -2 -1 -1 -1 -1 -1 -1
6 7 10 9 8 7 6 4 6 6 6 6 4 6 5 3 1 1 0 -0 -0 -1 -1 -1 -1 -0 1 -0 -1 -1 -1 -2 -2 -3 -2 -2 -2 -2 -2 -2 -2 -2 -1 -1 -1 -1 -1 -1 -1
6 6 10 9 9 8 5 5 4 5 6 3 3 6 6 3 1 1 0 0 -0 -0 -0 -1 -1 -1 -1 -1 1 -0 -1 -1 -2 -2 -1 -1 -1 -2 -2 -2 -2 -2 -2 -1 -1 -1 -1 -1 -1
5 8 10 9 9 7 5 6 4 3 4 4 4 4 3 2 1 2 2 1 1 0 -0 -1 -1 -1 -1 -1 -0 1 0 -0 -1 -1 0 0 -1 -1 -1 -1 -2 -2 -2 -2 -2 -1 -1 -1 -1
9 9 9 6 6 6 5 6 5 5 5 5 5 3 2 2 3 3 3 3 2 1 1 -0 -0 -1 -1 -1 -1 -1 -1 -1 -1 -1 -1 -1 -1 -1 -1 0 -0 -1 -1 -1 -2 -2 -1 -0 -1
9 10 7 6 5 5 6 6 4 6 6 5 5 4 3 3 3 3 3 2 2 1 1 0 -0 -1 -1 -1 -1 -1 -1 -1 -1 -1 -1 -1 -1 -1 -1 -1 -1 -1 0 -1 -1 -1 -1 -1 -1
12 9 8 7 6 6 6 5 6 5 5 3 3 3 4 4 4 4 3 2 2 1 1 0 -0 -0 -1 -1 -1 -1 -1 -1 -1 -1 -1 -1 -1 -1 -1 -1 -1 -2 -1 -1 -1 -1 -1 -1 -1
9 8 9 7 7 6 5 6 6 5 4 3 3 3 4 4 3 3 2 2 2 2 1 0 -0 -0 -0 -0 -1 -1 -1 -1 -1 -1 -1 -1 -1 -1 -1 -1 -1 -1 -1 -1 -1 -1 -1 -1 -1
9 9 9 9 8 7 7 6 6 5 3 4 4 4 4 4 3 3 3 2 2 1 1 0 0 -0 -1 -0 -0 -1 -1 -1 -1 -1 -1 -1 -1 -1 -1 -1 -1 -1 -1 -1 -1 -1 -0 -0 -0
9 11 10 9 9 9 7 8 8 5 4 4 4 4 4 3 3 3 2 2 2 1 1 1 0 -0 -0 -0 -0 -1 -1 -1 -1 -1 -1 -1 -1 -1 -1 -1 -1 -1 -1 -1 -1 -1 -1 -0 -0
10 10 13 9 8 9 8 11 8 4 5 5 5 4 4 3 3 2 2 2 1 1 1 1 0 0 -0 -0 -0 -0 -1 -1 -1 -1 -1 -1 -1 -1 -1 -0 -0 -1 -1 -1 -0 -0 0 0 1
12 15 14 11 8 10 9 11 8 6 5 5 5 4 4 4 3 2 2 2 1 1 1 1 0 0 0 -0 -0 -0 -1 -0 -1 -1 -1 -1 -1 -1 -1 -1 -1 -1 -0 -0 -0 0 0 1 1
14 14 12 13 10 8 11 11 9 8 8 6 5 4 4 4 4 2 2 1 1 1 1 1 1 0 0 -0 -0 -0 -0 -0 -1 -1 -1 -1 -1 -1 -1 -1 -1 -1 -0 0 -0 0 0 0 1
11 13 13 11 10 11 12 12 10 8 9 8 7 5 4 4 3 2 2 1 1 1 1 1 1 1 0 1 1 1 1 1 0 -0 -1 -1 -1 -1 -1 -0 -0 -0 0 0 0 0 1 1 0
12 14 14 12 13 12 12 12 10 9 9 8 8 7 5 4 3 3 2 2 2 2 1 1 1 1 1 1 1 1 1 0 0 -0 -0 -1 -1 -1 -0 -0 0 -0 0 0 0 1 1 1 0
13 14 13 14 13 13 13 13 11 10 9 8 8 7 7 6 4 3 3 2 2 2 2 1 1 1 1 0 0 1 0 0 1 1 0 -0 -1 -1 -1 -0 -0 -0 0 1 0 0 1 2 1
13 11 12 14 15 17 14 17 12 10 11 10 10 9 8 7 6 5 5 3 3 2 1 1 1 1 1 0 1 1 2 3 1 1 0 0 -0 -0 -1 -0 -0 -0 -0 1 0 0 1 1 2
12 9 11 12 14 14 15 17 15 11 12 11 10 10 9 8 7 6 5 4 4 3 3 2 1 1 1 1 1 1 2 1 1 1 1 0 0 -0 -0 -0 -0 0 0 0 0 0 1 1 1
8 9 11 12 13 19 15 15 15 13 13 11 10 11 10 9 8 8 7 7 6 4 3 4 4 4 2 1 1 1 2 2 2 2 2 1 1 0 -0 -0 -0 -0 0 0 0 1 0 1 1
9 11 17 17 18 19 14 15 16 12 12 12 12 11 11 10 9 9 9 8 8 7 6 5 5 4 4 2 1 1 1 1 2 2 2 2 1 1 1 0 0 0 0 0 0 1 1 1 1
11 11 15 19 19 18 14 17 15 11 10 11 12 11 11 10 10 9 9 9 9 7 7 6 6 6 5 3 2 1 1 1 1 1 1 1 1 1 0 0 1 0 0 0 1 1 1 1 1
10 12 10 13 15 16 15 14 12 12 12 11 12 11 11 10 9 9 9 8 8 8 7 7 6 5 5 4 3 1 1 1 1 1 1 1 1 1 0 0 1 1 1 1 1 1 2 3 3
9 8 13 12 19 19 16 15 15 13 12 12 11 10 9 9 9 8 8 8 8 8 7 7 7 7 7 6 5 4 3 1 1 1 2 1 2 2 3 3 2 2 1 2 2 4 5 5 6
11 11 11 11 13 16 17 16 11 12 11 11 10 10 9 9 9 8 7 7 7 7 7 7 8 8 8 8 8 7 7 7 6 5 4 4 4 4 4 3 3 2 2 2 3 5 6 6 7
8 10 10 14 15 13 14 14 9 10 9 9 9 9 9 8 8 8 7 7 7 7 7 7 8 8 9 9 9 9 9 8 8 7 7 6 6 5 4 4 3 3 4 4 5 6 7 7 8